Location: Chittendens Corners
(41.2320°N, 81.4940°W)
Time: 17:57:09
(UTC+00:00)

Cosmos 968 Rocket - Pass Details

Date: 29 October 2020
Orbit: 741 x 770 km, 74.0° (Epoch: 28 November)

Event Time Altitude Azimuth Distance (km) Brightness Sun altitude
Rises 23:17:39 0° 344° (NNW) 3,234 6.8 -10.6°
Reaches altitude 10° 23:20:06 10° 349° (N) 2,300 6.0 -11.0°
Maximum altitude 23:25:13 56° 67° (ENE) 902 3.5 -12.0°
Drops below altitude 10° 23:30:15 10° 146° (SE) 2,265 5.7 -12.9°
Sets 23:32:38 0° 150° (SSE) 3,181 6.5 -13.4°
